Flag for U.S.A. Weather past 2 weeks in Jackson, Wyoming, U.S.A.

Now
63 °F

Sunny.


Feels Like: 63 °F
Forecast: 41 / 73 °F
Wind: 5 mph from Southwest

Location: Jackson Hole

Current Time: Aug 28, 2014 at 9:31:20 PM

Latest Report: Aug 28, 2014 at 8:55 PM


Visibility: 10 mi

Pressure: 30.19 "Hg

Humidity: 49%

Dew point: 43 °F

Location of JacksonLocation

Historic Weather in Jackson — Graph

°F

Jackson temperature yesterday

Maximum temperature yesterday: 72 °F (at 2:59 PM)
Minimum temperature yesterday: 41 °F (at 7:55 AM)
Average temperature yesterday: 52 °F

Past Weeks' High & Low Weather Summary

 TemperatureHumidityPressure
High82 °F (Aug 18, 5:52 PM)100% (Aug 14, 5:35 AM)30.34 "Hg (Aug 14, 5:35 AM)
Low34 °F (Aug 25, 5:55 AM)14% (Aug 18, 5:52 PM)29.98 "Hg (Aug 19, 3:51 PM)
Average52 °F79%30.18 "Hg
* Reported Aug 13 7:58 PM — Aug 28 7:55 PM, Jackson, Weather by CustomWeather, © 2014

Note: Actual official high and low records may vary slightly from our data, if they occured in-between our weather recording intervals... More about our weather records

Advertising

Jackson weather history for previous 24 hours

 ConditionsComfort  
Time TempWeatherWind HumidityBarometerVisibility
7:55 PM
Aug 28
64 °FSunny.No wind40%30.10 "Hg10 mi
6:51 PM73 °FSunny.No wind29%30.18 "Hg10 mi
5:59 PM73 °FSunny.No wind29%30.19 "Hg10 mi
4:51 PM75 °FSunny.No wind27%30.20 "Hg10 mi
2:57 PM73 °FSunny.No wind27%30.23 "Hg10 mi
1:57 PM72 °FSunny.No wind31%30.25 "Hg10 mi
11:58 AM66 °FSunny.6 mph43%30.31 "Hg10 mi
10:58 AM61 °FSunny.No wind55%30.32 "Hg10 mi
9:55 AM57 °FSunny.No wind63%30.33 "Hg10 mi
8:52 AM50 °FSunny.No wind76%30.34 "Hg10 mi
7:52 AM43 °FSunny.No wind100%30.33 "Hg10 mi
6:52 AM39 °FClear.No wind93%30.32 "Hg10 mi
6:35 AM39 °FClear.5 mph93%30.32 "Hg10 mi
5:35 AM41 °FClear.3 mph93%30.30 "Hg10 mi
5:15 AM41 °FClear.No wind93%30.30 "Hg10 mi
4:55 AM41 °FClear.6 mph93%30.30 "Hg10 mi
4:35 AM41 °FClear.No wind93%30.30 "Hg10 mi
4:15 AM41 °FClear.6 mph93%30.30 "Hg10 mi
3:55 AM43 °FClear.6 mph93%30.30 "Hg10 mi
3:35 AM43 °FClear.3 mph87%30.30 "Hg10 mi
3:15 AM41 °FClear.5 mph93%30.29 "Hg10 mi
2:55 AM45 °FClear.5 mph87%30.29 "Hg10 mi
2:35 AM45 °FClear.5 mph87%30.29 "Hg10 mi
1:55 AM45 °FClear.6 mph93%30.29 "Hg10 mi
1:35 AM45 °FClear.7 mph93%30.29 "Hg10 mi
1:15 AM46 °FClear.7 mph87%30.28 "Hg10 mi
12:55 AM46 °FClear.6 mph87%30.28 "Hg10 mi
12:35 AM48 °FClear.5 mph82%30.28 "Hg10 mi
12:15 AM48 °FClear.5 mph82%30.28 "Hg10 mi
11:55 PM
Aug 27
50 °FClear.5 mph76%30.27 "Hg10 mi
11:35 PM48 °FClear.5 mph82%30.27 "Hg10 mi
11:15 PM55 °FClear.No wind63%30.27 "Hg10 mi
10:55 PM59 °FClear.5 mph51%30.27 "Hg10 mi
10:35 PM61 °FClear.6 mph48%30.27 "Hg10 mi
10:15 PM57 °FPassing clouds.6 mph59%30.27 "Hg10 mi
9:55 PM59 °FPassing clouds.No wind55%30.27 "Hg10 mi
9:35 PM61 °FPassing clouds.3 mph48%30.27 "Hg10 mi
9:15 PM61 °FPassing clouds.5 mph48%30.27 "Hg10 mi
Weather by CustomWeather, © 2014

See weather overviewHow to use our weather pages